AirNav   Pilot Hours Calculator
 
 1130 users online  

7D3 Baldwin Municipal Airport
Baldwin, Michigan, USA

GOING TO BALDWIN?


FAA INFORMATION EFFECTIVE 07 NOVEMBER 2019

Location

FAA Identifier: 7D3
Lat/Long: 43-52-31.9283N 085-50-31.4970W
43-52.532138N 085-50.524950W
43.8755356,-85.8420825
(estimated)
Elevation: 828 ft. / 252 m (estimated)
Variation: 06W (2020)
From city: 2 miles S of BALDWIN, MI
Time zone: UTC -5 (UTC -4 during Daylight Saving Time)
Zip code: 49304

Airport Operations

Airport use: Open to the public
Activation date: 02/1940
Control tower: no
ARTCC: MINNEAPOLIS CENTER
FSS: LANSING FLIGHT SERVICE STATION
NOTAMs facility: LAN (NOTAM-D service available)
Attendance: UNATNDD
ARPT CLSD WHEN SNOW COVERED; NO SNOW REMOVAL.
Wind indicator: yes
Segmented circle: yes

Airport Communications

CTAF: 122.9
WX AWOS-3P at RQB (17 nm SE): 125.875 (231-796-0884)
  • APCH/DEP SVC PRVDD BY MINNEAPOLIS ARTCC ON FREQS 120.85/322.35 (WHITE CLOUD RCAG).

Nearby radio navigation aids

VOR radial/distance  VOR name  Freq  Var
HICr344/18.8WHITE CLOUD VOR/DME117.6001W
MBLr148/29.6MANISTEE VOR/DME111.4005W

Airport Services

Parking: tiedowns
Airframe service: NONE
Powerplant service: NONE
Bottled oxygen: NONE
Bulk oxygen: NONE

Runway Information

Runway 9/27

Dimensions: 3800 x 75 ft. / 1158 x 23 m
Surface: asphalt, in fair condition
Weight bearing capacity: 
Single wheel: 10.0
RUNWAY 9  RUNWAY 27
Latitude: 43-52.525000N43-52.482250N
Longitude: 085-50.760617W085-49.898067W
Elevation: 818.0 ft.828.0 ft.
Traffic pattern: leftleft
Runway heading: 100 magnetic, 094 true280 magnetic, 274 true
Markings: basic, in good conditionbasic, in good condition
Runway end identifier lights: nono
Touchdown point: yes, no lightsyes, no lights
Obstructions: 69 ft. trees, 1588 ft. from runway, 20:1 slope to clear60 ft. trees, 1400 ft. from runway, 20:1 slope to clear

Runway 5/23

Dimensions: 2800 x 100 ft. / 853 x 30 m
Surface: turf, in fair condition
Runway edge markings: 05/23 & DSPLCD THLDS MKD WITH 3 FT YELLOW CONES.
RUNWAY 5  RUNWAY 23
Latitude: 43-52.415000N43-52.726667N
Longitude: 085-51.025000W085-50.555833W
Elevation: 816.0 ft.822.0 ft.
Traffic pattern: leftleft
Runway heading: 053 magnetic, 047 true233 magnetic, 227 true
Displaced threshold: 800 ft.800 ft.
Runway end identifier lights: nono
Touchdown point: yes, no lightsyes, no lights
Obstructions: 71 ft. trees, 400 ft. from runway, 130 ft. left of centerline, 6:1 slope to clear
APCH RATIO 20:1 AT DSPLCD THLD.
60 ft. trees, 234 ft. from runway, 3:1 slope to clear
APCH RATIO 20:1 AT DSPLCD THLD.

Airport Ownership and Management from official FAA records

Ownership: Publicly-owned
Owner: VILLAGE OF BALDWIN
PO BOX 339
BALDWIN, MI 49304
Phone 231-745-3587
Manager: MAC L MCCLELLAN
2535 W HUMMINGBIRD LN
BALDWIN, MI 49304
Phone 231-745-7815
231-250-2551 MGR CELL.

Airport Operational Statistics

Aircraft based on the field: 2
Single engine airplanes: 2
    
Aircraft operations: avg 29/month *
86% transient general aviation
14% local general aviation
* for 12-month period ending 31 December 2016

Additional Remarks

DEER ON & INVOF ARPT.
AMGR CELL 231-250-2551.
RADIO CONTROLLED MODEL ACFT OPS ADJ TO RY 9/27.
GATE 5-3-2-1.
FOR CD CTC MINNEAPOLIS ARTCC AT 651-463-5588.

Instrument Procedures

NOTE: All procedures below are presented as PDF files. If you need a reader for these files, you should download the free Adobe Reader.

NOT FOR NAVIGATION. Please procure official charts for flight.
FAA instrument procedures published for use from 07 November 2019 at 0901Z to 05 December 2019 at 0900Z.

 
IAPs - Instrument Approach Procedures
RNAV (GPS)-A **CHANGED**   download (149KB)
NOTE: Special Take-Off Minimums/Departure Procedures apply   download (122KB)

Other nearby airports with instrument procedures:

KRQB - Roben-Hood Airport (17 nm SE)
KLDM - Mason County Airport (25 nm W)
C04 - Oceana County Airport (25 nm SW)
KFFX - Fremont Municipal Airport (27 nm S)
KMBL - Manistee County-Blacker Airport (30 nm NW)
 
Loc | Ops | Rwys | IFR | FBO | Links
Com | Nav | Svcs | Stats | Notes
Area around 7D3 (Baldwin Municipal Airport)
 
Road maps at: MapQuest Bing Google
 
Aerial photo
WARNING: Photo may not be current or correct
Aerial photo of 7D3 (Baldwin Municipal Airport)
Do you have a better or more recent aerial photo of Baldwin Municipal Airport that you would like to share? If so, please send us your photo.

 
Sectional chart

 
Airport distance calculator
Flying to Baldwin Municipal Airport? Find the distance to fly.

From to 7D3

Sunrise and sunset
Times for 17-Nov-2019
 Local
(UTC-5)
 Zulu
(UTC)
Morning civil twilight07:1012:10
Sunrise07:4212:42
Sunset17:1522:15
Evening civil twilight17:4622:46

Current date and time
Zulu (UTC)  17-Nov-2019 20:24:48
Local (UTC-5)  17-Nov-2019 15:24:48
 
METAR
KRQB 
18nm SE 
171956Z AUTO 17004KT 10SM OVC100 02/M04 A2994 RMK AO2 T00181041
KLDM 
25nm W 
171956Z AUTO 15006KT 10SM BKN065 OVC080 01/M03 A2992 RMK AO2 T00121030
KFFX 
27nm S 
171955Z AUTO 15003KT 10SM BKN100 02/M04 A2994 RMK AO2 T00241045
KMBL 
29nm NW 
171956Z AUTO VRB06KT 10SM SCT049 OVC060 02/M04 A2992 RMK AO2 SLP141 T00171039 FZRANO
KCAD 
30nm NE 
171955Z AUTO 18003KT 10SM OVC100 01/M06 A2991 RMK AO2 T00101067
TAF
KMBL 
29nm NW 
171730Z 1718/1818 15008KT P6SM BKN100 FM172300 16007KT P6SM OVC045 FM180000 16007KT P6SM VCSH OVC028 FM180300 16006KT 3SM -SHSN OVC008 FM180600 VRB04KT P6SM VCSH OVC005 FM181600 00000KT P6SM OVC006
NOTAMs
Click for the latest NOTAMs
NOTAMs are issued by the DoD/FAA and will open in a separate window not controlled by AirNav.

 

 
 

Things to do: Attractions on or near the airport

  
 Business Name 
 
 Contact 
 
 Services / Description 
 
Distance
 
Comments
  
 Baldwin Canoe Rental
231-745-4669
[web site]
[email]
Attraction

More info about Baldwin Canoe Rental
1 mile  
   write
 

Would you like to see your business listed on this page?

 If your business provides an interesting product or service to pilots, flight crews, aircraft, or users of the Baldwin Municipal Airport, you should consider listing it here.  To start the listing process, click on the button below
 
Add a business
 

Other Pages about Baldwin Municipal Airport

Page from the Michigan Airport Directory (PDF)
 
Update a link
 
Copyright © AirNav, LLC. All rights reserved. Privacy Policy  Contact